Regional Weather Roundup
Issued by NWS

Home | Current Version | Previous Version | Text Only | Print | Product List | Glossary On
Versions: 1 2 3 4 5 6 7 8 9 10 11 12 13 14 15 16 17 18 19 20 21 22 23 24 25 26 27 28 29 30 31 32 33 34 35 36 37 38 39 40 41 42 43 44 45 46 47 48 49 50
000
ASUS43 KDTX 030610
RWRMI
MICHIGAN HOURLY REGIONAL WEATHER ROUNDUP
NATIONAL WEATHER SERVICE DETROIT/PONTIAC MI
200 AM EDT THU SEP 03 2015

NOTE: "FAIR" INDICATES FEW OR NO CLOUDS BELOW 12,000 FEET WITH NO
SIGNIFICANT WEATHER AND/OR OBSTRUCTION TO VISIBILITY.

MIZ047>049-052>055-059>063-066>070-074>076-081>083-030700-
SOUTHEAST LOWER MICHIGAN

CITY           SKY/WX    TMP DP  RH WIND       PRES   REMARKS
ADRIAN         FAIR      70  67  90 SW3       30.00S
6HR MIN TEMP:  68; 6HR MAX TEMP:  80;

ALMA           FAIR      68  67  97 CALM      29.98F
ANN ARBOR      FAIR      70  66  87 CALM      29.98F
BAD AXE        FAIR      65  64  98 CALM      29.98S FOG
CARO           FAIR      66  65  96 N7        29.99R
DETROIT CITY   FAIR      75  66  73 SW5       29.96S
6HR MIN TEMP:  73; 6HR MAX TEMP:  82;

DETROIT        MOCLDY    74  69  85 CALM      29.97F
6HR MIN TEMP:  74; 6HR MAX TEMP:  85;

FLINT          FAIR      71  65  81 W3        29.97F
6HR MIN TEMP:  69; 6HR MAX TEMP:  79;

GROSSE ILE     FAIR      73  70  88 W6        29.95F
HILLSDALE      FAIR      69  69 100 CALM      30.01F FOG
HOWELL         FAIR      69  68  94 W3        29.99S
6HR MIN TEMP:  69; 6HR MAX TEMP:  80;


CITY           SKY/WX    TMP DP  RH WIND       PRES   REMARKS
JACKSON        FAIR      68  67  96 CALM      30.00F FOG
6HR MIN TEMP:  68; 6HR MAX TEMP:  79;

LAMBERTVILLE   MOCLDY    71  68  91 CALM      29.99S FOG
6HR MIN TEMP:  70; 6HR MAX TEMP:  79;

LANSING        FAIR      72  68  87 CALM      29.99F FOG
6HR MIN TEMP:  71; 6HR MAX TEMP:  81;

LAPEER         FOG       64  64 100 CALM      29.98R VSB 1/4
6HR MIN TEMP:  63; 6HR MAX TEMP:  72; 6HR PCP:  0.01;

MASON          FAIR      69  66  90 CALM      29.99F FOG
MONROE         FAIR      71  67  90 W3        29.96F
6HR MIN TEMP:  68; 6HR MAX TEMP:  81;

MT. CLEMENS    FAIR      69  67  92 N3        29.94F
6HR MIN TEMP:  69; 6HR MAX TEMP:  76; 6HR PCP: TRACE;

PONTIAC        FAIR      69  67  93 NE3       29.97S
6HR MIN TEMP:  69; 6HR MAX TEMP:  75;

PORT HOPE        N/A     68  68 100 CALM      29.96R
6HR MIN TEMP:  68; 6HR MAX TEMP:  75; 6HR PCP:  0.08;

PORT HURON     FAIR      68  64  88 CALM      29.97R
TRI CITIES     FAIR      70  65  84 CALM      29.98S
6HR MIN TEMP:  69; 6HR MAX TEMP:  80;

MIDLAND        FAIR      67  66  96 CALM      29.97S FOG
TROY           FAIR      74  69  83 W3        29.98F
SAGINAW HB     FAIR      66  64  94 CALM      29.97S
$$
MIZ043>046-050>051-056>058-064>065-071>073-077>080-030700-
SOUTHWEST LOWER MICHIGAN

CITY           SKY/WX    TMP DP  RH WIND       PRES   REMARKS
BATTLE CREEK   MOCLDY    74  69  85 SW3       30.00S
6HR MIN TEMP:  72; 6HR MAX TEMP:  82;

BENTON HARBOR  FAIR      70  68  93 CALM      29.98S
6HR MIN TEMP:  69; 6HR MAX TEMP:  83;

BIG RAPIDS     FAIR      68  67  96 W3        29.98S FOG
6HR MIN TEMP:  68; 6HR MAX TEMP:  77;

COLDWATER      FAIR      68  68 100 CALM      30.00S FOG
6HR MIN TEMP:  68; 6HR MAX TEMP:  80;

FREMONT        FAIR      69  69 100 CALM      29.96S FOG
HOLLAND        FAIR      68  65  90 CALM      29.99S
6HR MIN TEMP:  68; 6HR MAX TEMP:  79; 6HR PCP:  0.16;

GRAND RAPIDS   MOCLDY    75  70  84 SW10G21   29.99S
6HR MIN TEMP:  72; 6HR MAX TEMP:  81;

IONIA          FAIR      72  70  93 S5        29.98F
6HR MIN TEMP:  69; 6HR MAX TEMP:  80;

KALAMAZOO      FAIR      70  68  93 CALM      30.00S FOG
6HR MIN TEMP:  70; 6HR MAX TEMP:  82;

LUDINGTON      FAIR      76  69  80 SE3       29.94S
6HR MIN TEMP:  72; 6HR MAX TEMP:  78;

MARSHALL       FAIR      70  68  96 CALM      29.99S FOG
6HR MIN TEMP:  68; 6HR MAX TEMP:  79;

MOUNT PLEASANT FAIR      70  67  90 CALM      29.96F FOG
6HR MIN TEMP:  69; 6HR MAX TEMP:  83;

MUSKEGON       FAIR      73  67  81 CALM      29.96S
6HR MIN TEMP:  72; 6HR MAX TEMP:  77;

SOUTH HAVEN    FAIR      69  67  93 CALM      29.98S
$$
MIZ016>042-030700-
NORTHERN LOWER MICHIGAN

CITY           SKY/WX    TMP DP  RH WIND       PRES   REMARKS
ALPENA         FAIR      66  64  93 CALM      29.97F
6HR MIN TEMP:  65; 6HR MAX TEMP:  69; 6HR PCP:  0.02;

BEAVER ISLAND  HVY RAIN  67  66  96 NE9       29.97F
6HR MIN TEMP:  67; 6HR MAX TEMP:  71;

BELLAIRE       FAIR      67  65  93 CALM      29.95F
6HR MIN TEMP:  67; 6HR MAX TEMP:  77;

CADILLAC       FAIR      63  62  97 CALM      29.98F FOG
CHARLEVOIX     FAIR      69  67  95 SE5       29.98S
FRANKFORT      FAIR      72  70  93 CALM      29.93S
GAYLORD        FAIR      66  66 100 CALM      29.99F
6HR MIN TEMP:  66; 6HR MAX TEMP:  68;

GRAYLING       FAIR      61  60  97 CALM      29.99F FOG
6HR MIN TEMP:  61; 6HR MAX TEMP:  72;

HARBOR SPRINGS FAIR      69  67  94 NE6       29.96F
HOUGHTON LAKE  FOG       62  61  96 CALM      29.99S VSB 1/2
6HR MIN TEMP:  62; 6HR MAX TEMP:  70; 6HR PCP: TRACE;

MANISTEE       FAIR      70  66  88 NE5       29.94S
OSCODA         FAIR      67  66  97 CALM      29.96R
6HR MIN TEMP:  67; 6HR MAX TEMP:  73;

PELLSTON       MOCLDY    69  67  93 CALM      29.98S
6HR MIN TEMP:  68; 6HR MAX TEMP:  75; 6HR PCP: TRACE;

ROGERS CITY    FAIR      67  65  91 CALM      29.99R
TRAVERSE CITY  FAIR      71  67  87 CALM      29.94S
6HR MIN TEMP:  71; 6HR MAX TEMP:  76;

$$
MIZ007>008-015-030700-
EASTERN UPPER MICHIGAN

CITY           SKY/WX    TMP DP  RH WIND       PRES   REMARKS
KINROSS        FAIR      66  64  94 CALM      29.99R
6HR MIN TEMP:  64; 6HR MAX TEMP:  70;

MACKINAC ISLAN CLOUDY    66  64  94 N5        29.98R
NEWBERRY       RAIN      65  65  99 CALM      30.00S
6HR MIN TEMP:  65; 6HR MAX TEMP:  71; 6HR PCP:  0.05;

S. S. MARIE    LGT RAIN  66  62  87 NW6       29.98R
6HR MIN TEMP:  64; 6HR MAX TEMP:  67; 6HR PCP:  0.01;

MUNISING         N/A     67  63  87 CALM      29.97S
6HR MIN TEMP:  66; 6HR MAX TEMP:  69; 6HR PCP:  0.03;

$$
MIZ004>006-011>014-085-030700-
CENTRAL UPPER MICHIGAN

CITY           SKY/WX    TMP DP  RH WIND       PRES   REMARKS
MANISTIQUE     RAIN      66  65  96 NE3       29.98S
6HR MIN TEMP:  66; 6HR MAX TEMP:  72; 6HR PCP:  0.48;

ESCANABA       MOCLDY    66  66 100 E12       29.93F
6HR MIN TEMP:  66; 6HR MAX TEMP:  72; 6HR PCP:  1.73;

MENOMINEE      CLOUDY    66  63  88 E6        29.92F
6HR MIN TEMP:  64; 6HR MAX TEMP:  68; 6HR PCP:  0.08;

SAWYER-GWINN   CLOUDY    65  63  94 NE6       29.97F
6HR MIN TEMP:  65; 6HR MAX TEMP:  69; 6HR PCP:  0.08;

$$
MIZ001>003-009>011-084-030700-
WESTERN UPPER MICHIGAN

CITY           SKY/WX    TMP DP  RH WIND       PRES   REMARKS
IRON MOUNTAIN  LGT RAIN  65  63  93 NE5       29.95S
6HR MIN TEMP:  65; 6HR MAX TEMP:  70; 6HR PCP:  0.85;

HOUGHTON       FOG       63  62  97 E3        29.98S VSB 1/4
6HR MIN TEMP:  63; 6HR MAX TEMP:  69;

COPPER HARBOR    N/A     61  58  90 SW5       29.97F
6HR MIN TEMP:  61; 6HR MAX TEMP:  67;

IRONWOOD       CLOUDY    59  59 100 CALM      29.95S VSB 1/4
6HR MIN TEMP:  57; 6HR MAX TEMP:  68;

$$

ABBREVIATIONS USED IN REMARKS
   TC - TEMPERATURE IN CELSIUS
  WCI - WIND CHILL INDEX
   HX - HEAT INDEX
  VSB - VISIBILITY



USA.gov is the U.S. government's official web portal to all federal, state and local government web resources and services.